Погода в Альмерии

Испания     36°50′48″N   2°27′30″W
темп.,
°C
ветер,
м/с
пор.,
м/с
влажн.,
%
обл.,
%
осадки,
мм/ч
давл.,
гПа
погр.,
м
7 марта, вс
вс701:00+14св81276100 0.9 1018674
04:00+14св5876100 0.6 1017408
07:00+14ссв577799 1.6 1016310
10:00+14ссв578099 2.2 1017347
13:00+14зсз238499 3.2 1017164
16:00+14ссв1181100 0.6 101597
19:00+14юз338392 0.7 1015187
22:00+13юз118797 1.6 1017168
8 марта, пн
пн801:00+13ююз229298 5.6 1016206
04:00+13юз5689100 3.2 1015366
07:00+13юз458595 3.4 1014509
10:00+13ююз338496 0.4 1015349
13:00+14ю228165 1.3 1015238
16:00+14ююз227917 0.0 1013297
19:00+14юз118142 0.2 1013221
22:00+14в2285100 0.1 1015135
9 марта, вт
вт901:00+14всв118392 1.5 101638
04:00+14ссв128135 1.2 101537
07:00+13св357945 2.8 1016218
10:00+13св897469 0.4 1018501
13:00+14св8106839 0.5 1019790
16:00+15всв676863 0.1 1017554
19:00+14всв787446 0.1 1019524
22:00+13всв68762 0.0 1022470
10 марта, ср
ср1001:00+13всв34741 0.0 1023300
04:00+13св33710 0.0 1022216
07:00+13всв34720 0.0 1023312
10:00+13всв33700 0.0 1025357
13:00+14юв33730 0.0 1026398
16:00+14ююв227710 0.0 1024312
19:00+13ююв11767 0.0 1025213
22:00+13сз01790 0.0 102779
11 марта, чт
чт1101:00+13юз11780 0.0 102796
04:00+13юз11770 0.0 1026101
07:00+13юз11770 0.0 1026109
10:00+14ююз22750 0.0 1026173
13:00+14ююз33730 0.0 1026256
16:00+14юз45730 0.0 1024290
19:00+14юз55750 0.0 1023192
22:00+14юз347719 0.0 1024124